DB5WY-13 Weather Reports


time (UTC)temp
C
wind
direction
speed
KPH
gust
KPH
rain 1hr
cm
rain 24hr
cm
rain mn
cm
humidity
%
barometer
mb
20260506102952 12 90 0.0 4.8 0.00 1.32 0.00 81 1007.1
20260506101952 13 202 0.0 8.0 0.00 1.32 0.00 79 1007.1
20260506100952 14 225 0.0 8.0 0.00 1.32 0.00 76 1007.1
20260506095952 15 247 0.0 6.4 0.05 1.32 0.00 75 1007.1
20260506094952 15 45 0.0 6.4 0.05 1.32 0.00 74 1006.9
20260506093952 16 292 0.0 9.7 0.05 1.32 0.00 73 1006.9
20260506092952 17 225 0.0 9.7 0.05 1.32 0.00 75 1007.0
20260506091952 16 67 0.0 11.3 0.05 1.32 0.00 79 1006.8
20260506090952 13 67 0.0 0.0 0.05 1.32 0.00 84 1006.9
20260506085952 12 337 0.0 0.0 0.00 1.27 0.00 85 1006.8
20260506084952 12 247 0.0 0.0 0.00 1.27 0.00 85 1006.8
20260506083953 12 180 0.0 6.4 0.00 1.27 0.00 85 1006.7
20260506082953 12 337 0.0 0.0 0.00 1.27 0.00 86 1006.6
20260506081953 12 337 0.0 0.0 0.00 1.27 0.00 88 1006.6
20260506080953 12 337 0.0 0.0 0.00 1.27 0.00 89 1006.7
20260506072953 11 337 0.0 0.0 0.00 1.27 0.00 92 1006.7
20260506071953 11 202 0.0 0.0 0.00 1.27 0.00 93 1006.6
20260506070953 11 225 0.0 6.4 0.00 1.27 0.00 94 1006.6
20260506061953 9 180 0.0 0.0 0.00 1.27 0.00 94 1006.5
20260506060953 9 247 0.0 0.0 0.05 1.27 0.00 94 1006.4
20260506050953 8 202 0.0 0.0 0.00 1.22 0.00 94 1006.5
20260506044953 8 247 0.0 0.0 0.00 1.22 0.00 94 1006.4
20260506043953 8 202 0.0 0.0 0.00 1.22 0.00 94 1006.6
20260506042953 8 202 0.0 0.0 0.00 1.22 0.00 94 1006.4
20260506041953 8 202 0.0 0.0 0.00 1.22 0.00 94 1006.5
20260506040953 8 202 0.0 0.0 0.00 1.22 0.00 94 1006.6
20260506035953 8 247 0.0 0.0 0.00 1.22 0.00 94 1006.6
20260506034953 8 22 0.0 0.0 0.00 1.22 0.00 94 1006.5
20260506033953 8 112 0.0 0.0 0.00 1.22 0.00 94 1006.5
20260506032954 8 337 0.0 0.0 0.00 1.22 0.00 94 1006.8
20260506031954 8 337 0.0 0.0 0.00 1.22 0.00 94 1006.7
20260506030954 8 337 0.0 0.0 0.00 1.22 0.00 94 1006.7
20260506025954 8 112 0.0 0.0 0.00 1.22 0.00 94 1006.8
20260506024954 8 67 0.0 0.0 0.00 1.22 0.00 94 1006.7
20260506023954 8 112 0.0 0.0 0.00 1.22 0.00 94 1006.8
20260506022954 8 202 0.0 0.0 0.00 1.22 0.00 94 1006.8
20260506021954 8 225 0.0 0.0 0.00 1.22 0.00 94 1006.9
20260506020954 8 247 0.0 0.0 0.00 1.22 0.00 94 1007.2
20260506015954 8 202 0.0 0.0 0.00 1.22 0.00 94 1007.1
20260506014954 8 22 0.0 0.0 0.00 1.22 0.00 94 1007.1
20260506013954 8 202 0.0 0.0 0.00 1.22 0.00 94 1007.3
20260506012954 8 67 0.0 0.0 0.00 1.22 0.00 94 1007.3
20260506011954 9 247 0.0 0.0 0.00 1.22 0.00 94 1007.4
20260506010954 9 202 0.0 0.0 0.00 1.22 0.00 94 1007.4
20260506005954 9 247 0.0 0.0 0.00 1.22 0.00 94 1007.2
20260506004954 9 225 0.0 0.0 0.00 1.22 0.00 94 1007.4
20260506003954 9 67 0.0 0.0 0.00 1.22 0.00 94 1007.4
20260506002954 9 67 0.0 0.0 0.00 1.22 0.00 94 1007.3
20260506001954 9 180 0.0 0.0 0.00 1.22 0.00 94 1007.6
20260506000954 9 270 0.0 0.0 0.00 1.22 0.00 94 1007.7
20260505235954 10 90 0.0 0.0 0.00 1.22 0.00 94 1007.7
20260505234954 10 247 0.0 0.0 0.00 1.22 0.00 94 1007.6
20260505233954 10 225 0.0 0.0 0.00 1.22 0.00 94 1007.8
20260505232954 10 135 0.0 0.0 0.00 1.22 0.00 94 1007.9
20260505231954 10 225 0.0 8.0 0.00 1.22 0.00 94 1007.9
20260505230954 10 225 0.0 6.4 0.00 1.22 0.00 94 1008.0
20260505225954 10 202 0.0 0.0 0.00 1.22 0.00 93 1008.0
20260505224954 10 247 0.0 6.4 0.00 1.22 0.00 93 1008.0
20260505223954 10 180 0.0 6.4 0.00 1.22 0.00 93 1008.1
20260505222954 10 247 4.8 8.0 0.00 1.22 0.00 93 1008.0
20260505221954 10 225 0.0 0.0 0.00 1.22 0.00 93 1008.1
20260505220955 10 180 0.0 0.0 0.00 1.22 0.00 93 1008.1
20260505215955 10 247 0.0 0.0 0.00 1.22 0.00 93 1008.2
20260505214955 10 225 0.0 0.0 0.00 1.22 0.00 93 1008.4
20260505213955 10 225 0.0 0.0 0.00 1.22 0.00 93 1008.5
20260505212955 10 225 0.0 0.0 0.00 1.22 0.00 93 1008.5
20260505211955 10 202 0.0 0.0 0.00 1.22 0.00 93 1008.6
20260505210955 10 180 0.0 0.0 0.00 1.22 0.00 93 1008.6
20260505205955 10 202 0.0 0.0 0.00 1.22 0.00 93 1008.7
20260505204955 10 202 0.0 0.0 0.00 1.22 0.00 93 1008.8
20260505203955 10 180 0.0 0.0 0.00 1.22 0.00 93 1008.7
20260505202955 10 202 0.0 0.0 0.05 1.22 0.00 93 1008.8
20260505201955 10 45 0.0 0.0 0.05 1.22 0.00 93 1008.7
20260505200955 10 202 0.0 0.0 0.05 1.22 0.00 93 1008.8
20260505195955 10 90 0.0 0.0 0.05 1.45 0.00 93 1008.7
20260505194955 10 90 0.0 0.0 0.05 1.45 0.00 93 1008.7
20260505193955 10 90 0.0 0.0 0.05 1.45 0.00 93 1008.6
20260505192955 10 157 0.0 0.0 0.46 1.40 0.00 93 1008.6
20260505191955 10 157 0.0 0.0 0.46 1.40 0.00 92 1008.6
20260505190955 10 157 0.0 0.0 0.56 1.40 0.00 92 1008.7
20260505185955 10 202 0.0 0.0 0.81 2.06 0.00 92 1008.6
20260505184955 10 202 0.0 0.0 0.86 2.06 0.00 92 1008.6
20260505183955 10 247 0.0 0.0 0.41 1.60 0.00 92 1008.7
20260505182955 11 225 0.0 0.0 0.41 1.60 0.00 92 1008.7
20260505181955 11 202 0.0 0.0 0.41 1.60 0.00 91 1008.6
20260505180955 11 225 0.0 6.4 0.25 1.45 0.00 92 1008.8
20260505175955 11 202 0.0 0.0 0.05 1.22 0.00 92 1008.8
20260505174955 11 247 0.0 0.0 0.00 1.17 0.00 91 1008.7
20260505173955 11 180 0.0 0.0 0.05 1.17 0.00 91 1008.8
20260505172955 11 0 0.0 0.0 0.05 1.17 0.00 91 1008.9
20260505171955 11 315 0.0 0.0 0.05 1.17 0.00 91 1008.9
20260505170956 11 22 0.0 0.0 0.05 1.17 0.00 90 1008.9
20260505165956 11 67 0.0 0.0 0.10 1.17 0.00 90 1009.0
20260505164956 11 90 0.0 0.0 0.05 1.12 0.00 90 1009.1
20260505163956 12 202 0.0 0.0 0.05 1.12 0.00 90 1009.1
20260505162956 12 202 0.0 0.0 0.05 1.12 0.00 90 1009.2
20260505161956 12 202 0.0 0.0 0.10 1.12 0.00 90 1009.3
20260505160956 12 180 0.0 0.0 0.10 1.12 0.00 89 1009.3
20260505152956 12 247 0.0 6.4 0.05 1.02 0.00 88 1009.4
20260505151956 12 157 0.0 0.0 0.10 1.02 0.00 87 1009.4
20260505150956 13 270 0.0 0.0 0.10 1.02 0.00 87 1009.4
20260505124956 20 90 0.0 0.0 0.00 1.17 0.00 63 1009.8
20260505123956 18 112 0.0 0.0 0.00 1.17 0.00 71 1010.0
20260505122956 15 90 0.0 0.0 0.00 1.17 0.00 76 1010.0
20260505121956 14 112 0.0 0.0 0.00 1.17 0.00 75 1010.2
20260505120956 15 67 0.0 0.0 0.00 1.17 0.00 72 1010.2
20260505115956 16 247 0.0 0.0 0.00 1.17 0.00 66 1010.2
20260505114957 17 202 0.0 0.0 0.00 1.17 0.00 63 1010.2
20260505113957 17 202 0.0 0.0 0.00 1.17 0.00 61 1010.3
20260505112957 17 202 0.0 0.0 0.00 1.17 0.00 60 1010.3
20260505111957 18 225 0.0 0.0 0.00 1.17 0.00 58 1010.5
20260505110957 19 202 0.0 0.0 0.00 1.17 0.00 55 1010.5